Weather History for K4A9 - April, 2013

Change the Weather History Date:

Wednesday, April 3, 2013

  Actual Average (KRMG) Record (KRMG)
Temperature  
Mean Temperature 48 °F 57 °F  
Max Temperature 55 °F 70 °F 87 °F (1999)
Min Temperature 42 °F 44 °F 36 °F (1997)
Degree Days  
Heating Degree Days 16 9  
Month to date heating degree days 27  
Since 1 July heating degree days 3054  
Cooling Degree Days 0 0  
Month to date cooling degree days 0  
Year to date cooling degree days 4  
Moisture  
Dew Point 29 °F    
Average Humidity 50    
Maximum Humidity 87    
Minimum Humidity 26    
Precipitation  
Precipitation 0.01 in 0.13 in 1.08 in (1998)
Month to date precipitation 0.42  
Year to date precipitation 15.06  
Sea Level Pressure  
Sea Level Pressure 30.16 in    
Wind  
Wind Speed 6 mph (NE)    
Max Wind Speed 12 mph    
Max Gust Speed -    
Visibility 10 miles    
Events Rain    
T = Trace of Precipitation, MM = Missing Value Source: NWS Daily Summary

Daily Weather History Graph

Daily Weather History Graph

Search for Another Location

Airport or City:

Trip Planner

Search our weather history database for the weather conditions in past years. The results will help you decide how hot, cold, wet, or windy it might be!

Date:

Astronomy

Apr. 03, 2013 Rise Set
Actual Time 6:26 AM CDT 7:05 PM CDT
Civil Twilight 6:01 AM CDT 7:31 PM CDT
Nautical Twilight 5:31 AM CDT 8:01 PM CDT
Astronomical Twilight 5:01 AM CDT 8:31 PM CDT
Moon 1:51 AM CDT (4/3) 12:32 PM CDT (4/3)
Length of Visible Light 13h 29m
Length of Day
12h 38m
Last Quarter, 44% of the Moon is Illuminated
Apr 3
Last Quarter
Apr 10
New
Apr 18
First Quarter
Apr 25
Full
May 2
Last Quarter

Hourly Weather History & Observations

Time (CDT) Temp. Windchill Dew Point Humidity Pressure Visibility Wind Dir Wind Speed Gust Speed Precip Events Conditions
12:15 AM 46.4 °F 45.2 °F 26.6 °F 46% 30.18 in 10.0 mi NNE 3.5 mph - N/A   Overcast
12:35 AM 46.4 °F 45.2 °F 26.6 °F 46% 30.19 in 10.0 mi North 3.5 mph - N/A   Overcast
12:55 AM 46.4 °F 42.4 °F 26.6 °F 46% 30.16 in 10.0 mi NNE 8.1 mph - N/A   Overcast
1:15 AM 46.4 °F 42.9 °F 26.6 °F 46% 30.16 in 10.0 mi NNE 6.9 mph - N/A   Overcast
1:35 AM 46.4 °F 42.9 °F 26.6 °F 46% 30.16 in 10.0 mi NNE 6.9 mph - N/A   Overcast
1:55 AM 46.4 °F 43.5 °F 26.6 °F 46% 30.14 in 10.0 mi NE 5.8 mph - N/A   Overcast
2:15 AM 46.4 °F 42.4 °F 26.6 °F 46% 30.14 in 10.0 mi NNE 8.1 mph - N/A   Overcast
2:35 AM 44.6 °F 39.7 °F 26.6 °F 49% 30.13 in 10.0 mi NNE 9.2 mph - N/A   Overcast
2:55 AM 44.6 °F 40.7 °F 26.6 °F 49% 30.13 in 10.0 mi NNE 6.9 mph - N/A   Mostly Cloudy
3:15 AM 44.6 °F 39.7 °F 26.6 °F 49% 30.12 in 10.0 mi NE 9.2 mph - N/A   Mostly Cloudy
3:35 AM 44.6 °F 40.7 °F 26.6 °F 49% 30.13 in 10.0 mi NE 6.9 mph - N/A   Scattered Clouds
3:55 AM 44.6 °F 40.7 °F 28.4 °F 53% 30.12 in 10.0 mi NE 6.9 mph - N/A   Clear
4:15 AM 42.8 °F 40.1 °F 28.4 °F 57% 30.12 in 10.0 mi NE 4.6 mph - N/A   Clear
4:35 AM 42.8 °F 38.6 °F 28.4 °F 57% 30.13 in 10.0 mi NE 6.9 mph - N/A   Clear
4:55 AM 42.8 °F 39.3 °F 26.6 °F 53% 30.13 in 10.0 mi NE 5.8 mph - N/A   Clear
5:15 AM 42.8 °F 40.1 °F 26.6 °F 53% 30.15 in 10.0 mi NE 4.6 mph - N/A   Scattered Clouds
5:35 AM 42.8 °F 39.3 °F 24.8 °F 49% 30.15 in 10.0 mi NNE 5.8 mph - N/A   Mostly Cloudy
5:55 AM 42.8 °F 41.1 °F 23.0 °F 46% 30.17 in 10.0 mi NE 3.5 mph - N/A   Overcast
6:15 AM 42.8 °F 39.3 °F 23.0 °F 46% 30.17 in 10.0 mi NE 5.8 mph - N/A   Overcast
6:35 AM 42.8 °F 39.3 °F 21.2 °F 42% 30.17 in 10.0 mi NE 5.8 mph - N/A   Overcast
6:55 AM 42.8 °F 39.3 °F 21.2 °F 42% 30.17 in 10.0 mi NE 5.8 mph - N/A   Scattered Clouds
7:15 AM 42.8 °F 38.6 °F 21.2 °F 42% 30.17 in 10.0 mi NE 6.9 mph - N/A   Clear
7:35 AM 44.6 °F 40.2 °F 21.2 °F 39% 30.16 in 10.0 mi NE 8.1 mph - N/A   Clear
7:55 AM 44.6 °F 39.7 °F 19.4 °F 37% 30.18 in 10.0 mi NE 9.2 mph - N/A   Clear
8:15 AM 46.4 °F 43.5 °F 15.8 °F 29% 30.18 in 10.0 mi NE 5.8 mph - N/A   Clear
8:35 AM 46.4 °F 44.3 °F 17.6 °F 32% 30.19 in 10.0 mi NE 4.6 mph - N/A   Clear
8:55 AM 48.2 °F - 17.6 °F 30% 30.18 in 10.0 mi ENE 9.2 mph - N/A   Clear
9:15 AM 50.0 °F - 19.4 °F 30% 30.19 in 10.0 mi NE 9.2 mph - N/A   Clear
9:35 AM 50.0 °F - 19.4 °F 30% 30.19 in 10.0 mi NNE 10.4 mph - N/A   Clear
9:55 AM 51.8 °F - 19.4 °F 28% 30.18 in 10.0 mi NE 9.2 mph - N/A   Clear
10:15 AM 53.6 °F - 21.2 °F 28% 30.18 in 10.0 mi North 10.4 mph - N/A   Scattered Clouds
10:35 AM 53.6 °F - 19.4 °F 26% 30.18 in 10.0 mi NNE 10.4 mph - N/A   Scattered Clouds
10:55 AM 53.6 °F - 21.2 °F 28% 30.17 in 10.0 mi NNE 11.5 mph - N/A   Scattered Clouds
11:15 AM 55.4 °F - 21.2 °F 26% 30.18 in 10.0 mi NNE 11.5 mph - N/A   Scattered Clouds
11:35 AM 55.4 °F - 23.0 °F 29% 30.18 in 10.0 mi East 8.1 mph - N/A   Mostly Cloudy
11:55 AM 55.4 °F - 23.0 °F 29% 30.17 in 10.0 mi East 11.5 mph - N/A   Scattered Clouds
12:15 PM 55.4 °F - 23.0 °F 29% 30.16 in 10.0 mi East 8.1 mph - N/A   Scattered Clouds
12:35 PM 55.4 °F - 23.0 °F 29% 30.17 in 10.0 mi East 4.6 mph - N/A   Mostly Cloudy
12:55 PM 55.4 °F - 23.0 °F 29% 30.18 in 10.0 mi East 4.6 mph - N/A   Overcast
1:15 PM 55.4 °F - 23.0 °F 29% 30.18 in 10.0 mi East 4.6 mph - N/A   Overcast
1:35 PM 53.6 °F - 26.6 °F 35% 30.18 in 10.0 mi East 4.6 mph - N/A Rain Light Rain
1:55 PM 53.6 °F - 30.2 °F 41% 30.18 in 10.0 mi ESE 3.5 mph - N/A   Light Drizzle
2:15 PM 53.6 °F - 28.4 °F 38% 30.16 in 10.0 mi NE 6.9 mph - N/A   Overcast
2:35 PM 53.6 °F - 30.2 °F 41% 30.16 in 10.0 mi NNE 8.1 mph - N/A   Light Drizzle
2:55 PM 53.6 °F - 32.0 °F 44% 30.15 in 10.0 mi NE 6.9 mph - N/A   Light Drizzle
3:15 PM 53.6 °F - 30.2 °F 41% 30.16 in 10.0 mi NE 9.2 mph - N/A   Mostly Cloudy
3:35 PM 53.6 °F - 30.2 °F 41% 30.16 in 10.0 mi NE 6.9 mph - N/A Rain Light Rain
3:55 PM 53.6 °F - 32.0 °F 44% 30.15 in 10.0 mi NE 6.9 mph - N/A   Overcast
4:15 PM 51.8 °F - 32.0 °F 47% 30.14 in 10.0 mi NE 9.2 mph - N/A   Light Drizzle
4:35 PM 51.8 °F - 32.0 °F 47% 30.13 in 10.0 mi NE 6.9 mph - N/A   Overcast
4:55 PM 51.8 °F - 30.2 °F 44% 30.13 in 10.0 mi NE 6.9 mph - N/A   Overcast
5:15 PM 51.8 °F - 28.4 °F 41% 30.12 in 10.0 mi NE 8.1 mph - N/A   Overcast
5:35 PM 51.8 °F - 32.0 °F 47% 30.13 in 10.0 mi ENE 3.5 mph - N/A Rain Rain
5:55 PM 50.0 °F - 35.6 °F 58% 30.13 in 7.0 mi ENE 3.5 mph - N/A Rain Light Rain
6:15 PM 46.4 °F - 42.8 °F 87% 30.14 in 7.0 mi Calm Calm - N/A Rain Light Rain
6:35 PM 46.4 °F 45.2 °F 41.0 °F 81% 30.14 in 7.0 mi East 3.5 mph - N/A Rain Light Rain
6:55 PM 44.6 °F - 39.2 °F 81% 30.14 in 7.0 mi Calm Calm - N/A Rain Rain
7:15 PM 44.6 °F - 39.2 °F 81% 30.15 in 7.0 mi Calm Calm - 0.01 in Rain Rain
7:35 PM 44.6 °F 43.1 °F 41.0 °F 87% 30.15 in 10.0 mi East 3.5 mph - 0.01 in Rain Light Rain
7:55 PM 44.6 °F 43.1 °F 37.4 °F 76% 30.16 in 7.0 mi ENE 3.5 mph - 0.01 in Rain Rain
8:15 PM 44.6 °F 43.1 °F 37.4 °F 76% 30.16 in 7.0 mi NE 3.5 mph - N/A Rain Rain
8:35 PM 44.6 °F 41.4 °F 39.2 °F 81% 30.15 in 10.0 mi NE 5.8 mph - N/A Rain Light Rain
8:55 PM 44.6 °F 39.7 °F 37.4 °F 76% 30.15 in 10.0 mi ENE 9.2 mph - N/A Rain Light Rain
9:15 PM 44.6 °F 39.2 °F 35.6 °F 71% 30.14 in 10.0 mi ENE 10.4 mph - N/A   Light Drizzle
9:35 PM 44.6 °F 39.2 °F 35.6 °F 71% 30.15 in 10.0 mi NE 10.4 mph - N/A   Light Drizzle
9:55 PM 44.6 °F 39.7 °F 35.6 °F 71% 30.16 in 10.0 mi ENE 9.2 mph - N/A Rain Light Rain
10:15 PM 44.6 °F 41.4 °F 35.6 °F 71% 30.16 in 10.0 mi NE 5.8 mph - N/A Rain Light Rain
10:35 PM 44.6 °F 40.7 °F 37.4 °F 76% 30.15 in 10.0 mi NNE 6.9 mph - N/A Rain Rain
10:55 PM 44.6 °F 40.7 °F 37.4 °F 76% 30.14 in 10.0 mi NNE 6.9 mph - N/A Rain Rain
11:15 PM 44.6 °F 41.4 °F 39.2 °F 81% 30.14 in 10.0 mi NE 5.8 mph - N/A Rain Light Rain
11:35 PM 44.6 °F 40.2 °F 41.0 °F 87% 30.13 in 10.0 mi NNE 8.1 mph - N/A Rain Light Rain
11:55 PM 44.6 °F 41.4 °F 41.0 °F 87% 30.13 in 10.0 mi NE 5.8 mph - N/A Rain Light Rain